Time,TemperatureF,DewpointF,PressureIn,WindDirection,WindDirectionDegrees,WindSpeedMPH,WindSpeedGustMPH,Humidity,HourlyPrecipIn,Conditions,Clouds,dailyrainin,SoftwareType,DateUTC
2013-08-10 00:01:00,66.2,60.3,30.02,West,270,0.0,0.0,81,0.00,RMK 77.0/57.0,,0.00,WUHU21623XXSP,2013-08-10 04:01:00,
2013-08-10 00:06:00,66.1,60.5,30.02,West,270,0.0,0.0,82,0.00,RMK 76.8/57.0,,0.00,WUHU21623XXSP,2013-08-10 04:06:00,
2013-08-10 00:11:00,65.9,60.3,30.03,West,270,0.0,0.0,82,0.00,RMK 76.8/57.0,,0.00,WUHU21623XXSP,2013-08-10 04:11:00,
2013-08-10 00:16:00,65.9,60.3,30.03,West,270,0.0,0.0,82,0.00,RMK 76.8/57.0,,0.00,WUHU21623XXSP,2013-08-10 04:16:00,
2013-08-10 00:21:00,65.5,59.9,30.03,West,270,0.0,0.0,82,0.00,RMK 76.6/57.0,,0.00,WUHU21623XXSP,2013-08-10 04:21:00,
2013-08-10 00:26:00,65.5,59.9,30.03,West,270,0.0,0.0,82,0.00,RMK 76.6/57.0,,0.00,WUHU21623XXSP,2013-08-10 04:26:00,
2013-08-10 00:31:00,65.5,60.2,30.03,West,270,0.0,0.0,83,0.00,RMK 76.6/57.0,,0.00,WUHU21623XXSP,2013-08-10 04:31:00,
2013-08-10 00:36:00,65.2,59.9,30.04,West,270,0.0,0.0,83,0.00,RMK 76.5/57.0,,0.00,WUHU21623XXSP,2013-08-10 04:36:00,
2013-08-10 00:41:00,65.2,59.9,30.03,West,270,0.0,0.0,83,0.00,RMK 76.5/57.0,,0.00,WUHU21623XXSP,2013-08-10 04:41:00,
2013-08-10 00:46:00,65.0,60.1,30.03,West,270,0.0,0.0,84,0.00,RMK 76.3/57.0,,0.00,WUHU21623XXSP,2013-08-10 04:46:00,
2013-08-10 00:51:00,65.0,60.1,30.03,West,270,0.0,0.0,84,0.00,RMK 76.3/58.0,,0.00,WUHU21623XXSP,2013-08-10 04:51:00,
2013-08-10 00:56:00,64.8,59.9,30.03,West,270,0.0,0.0,84,0.00,RMK 76.3/58.0,,0.00,WUHU21623XXSP,2013-08-10 04:56:00,
2013-08-10 01:01:00,64.8,59.9,30.03,West,270,0.0,0.0,84,0.00,RMK 76.3/58.0,,0.00,WUHU21623XXSP,2013-08-10 05:01:00,
2013-08-10 01:06:00,64.8,59.9,30.03,West,270,0.0,0.0,84,0.00,RMK 76.1/58.0,,0.00,WUHU21623XXSP,2013-08-10 05:06:00,
2013-08-10 01:11:00,64.8,59.9,30.04,West,270,0.0,0.0,84,0.00,RMK 76.1/58.0,,0.00,WUHU21623XXSP,2013-08-10 05:11:00,
2013-08-10 01:16:00,64.8,59.9,30.04,West,270,0.0,0.0,84,0.00,RMK 75.9/58.0,,0.00,WUHU21623XXSP,2013-08-10 05:16:00,
2013-08-10 01:21:00,64.8,60.2,30.04,NW,315,0.0,0.0,85,0.00,RMK 75.9/58.0,,0.00,WUHU21623XXSP,2013-08-10 05:21:00,
2013-08-10 01:26:00,65.0,60.4,30.04,NW,315,0.0,0.0,85,0.00,RMK 75.9/59.0,,0.00,WUHU21623XXSP,2013-08-10 05:26:00,
2013-08-10 01:31:00,64.8,60.2,30.05,NW,315,0.0,0.0,85,0.00,RMK 75.9/59.0,,0.00,WUHU21623XXSP,2013-08-10 05:31:00,
2013-08-10 01:36:00,64.8,60.2,30.05,NW,315,0.0,0.0,85,0.00,RMK 75.9/59.0,,0.00,WUHU21623XXSP,2013-08-10 05:36:00,
2013-08-10 01:41:00,64.8,60.2,30.05,NNW,337,0.0,0.0,85,0.00,RMK 75.9/58.0,,0.00,WUHU21623XXSP,2013-08-10 05:41:00,
2013-08-10 01:46:00,64.8,60.2,30.05,NNW,337,0.0,0.0,85,0.00,RMK 75.9/58.0,,0.00,WUHU21623XXSP,2013-08-10 05:46:00,
2013-08-10 01:51:00,65.0,60.1,30.05,NNW,337,0.0,0.0,84,0.00,RMK 75.9/57.0,,0.00,WUHU21623XXSP,2013-08-10 05:51:00,
2013-08-10 01:56:00,65.0,60.1,30.05,NNW,337,0.0,0.0,84,0.00,RMK 75.9/57.0,,0.00,WUHU21623XXSP,2013-08-10 05:56:00,
2013-08-10 02:01:00,65.0,60.1,30.05,NNW,337,0.0,0.0,84,0.00,RMK 75.9/57.0,,0.00,WUHU21623XXSP,2013-08-10 06:01:00,
2013-08-10 02:06:00,65.2,60.3,30.05,NNW,337,0.0,0.0,84,0.00,RMK 76.1/57.0,,0.00,WUHU21623XXSP,2013-08-10 06:06:00,
2013-08-10 02:11:00,65.3,60.4,30.06,NNE,22,0.0,0.0,84,0.00,RMK 76.1/57.0,,0.00,WUHU21623XXSP,2013-08-10 06:11:00,
2013-08-10 02:16:00,65.3,60.4,30.06,NNE,22,0.0,0.0,84,0.00,RMK 76.1/56.0,,0.00,WUHU21623XXSP,2013-08-10 06:16:00,
2013-08-10 02:21:00,65.3,60.4,30.06,NNE,22,0.0,0.0,84,0.00,RMK 76.3/56.0,,0.00,WUHU21623XXSP,2013-08-10 06:21:00,
2013-08-10 02:26:00,65.3,60.4,30.06,NNE,22,0.0,0.0,84,0.00,RMK 76.3/56.0,,0.00,WUHU21623XXSP,2013-08-10 06:26:00,
2013-08-10 02:31:00,65.2,60.3,30.06,NNE,22,0.0,0.0,84,0.00,RMK 76.3/56.0,,0.00,WUHU21623XXSP,2013-08-10 06:31:00,
2013-08-10 02:36:00,65.0,60.1,30.06,NNE,22,0.0,0.0,84,0.00,RMK 76.3/56.0,,0.00,WUHU21623XXSP,2013-08-10 06:36:00,
2013-08-10 02:41:00,65.0,60.1,30.06,NNE,22,0.0,0.0,84,0.00,RMK 76.3/56.0,,0.00,WUHU21623XXSP,2013-08-10 06:41:00,
2013-08-10 02:46:00,65.0,60.1,30.06,NNE,22,0.0,0.0,84,0.00,RMK 76.3/56.0,,0.00,WUHU21623XXSP,2013-08-10 06:46:00,
2013-08-10 02:51:00,64.8,59.6,30.06,NNE,22,0.0,0.0,83,0.00,RMK 76.3/56.0,,0.00,WUHU21623XXSP,2013-08-10 06:51:00,
2013-08-10 02:56:00,64.6,59.4,30.06,NNE,22,0.0,0.0,83,0.00,RMK 76.3/56.0,,0.00,WUHU21623XXSP,2013-08-10 06:56:00,
2013-08-10 03:01:00,64.6,59.4,30.06,NNE,22,0.0,0.0,83,0.00,RMK 76.5/56.0,,0.00,WUHU21623XXSP,2013-08-10 07:01:00,
2013-08-10 03:06:00,64.4,59.2,30.06,NNE,22,0.0,0.0,83,0.00,RMK 76.5/56.0,,0.00,WUHU21623XXSP,2013-08-10 07:06:00,
2013-08-10 03:11:00,64.4,59.5,30.06,NNE,22,0.0,0.0,84,0.00,RMK 76.5/56.0,,0.00,WUHU21623XXSP,2013-08-10 07:11:00,
2013-08-10 03:16:00,64.4,59.5,30.06,NNE,22,0.0,0.0,84,0.00,RMK 76.5/56.0,,0.00,WUHU21623XXSP,2013-08-10 07:16:00,
2013-08-10 03:21:00,64.1,59.2,30.06,NNE,22,0.0,0.0,84,0.00,RMK 76.5/56.0,,0.00,WUHU21623XXSP,2013-08-10 07:21:00,
2013-08-10 03:26:00,64.1,59.2,30.07,NNE,22,0.0,0.0,84,0.00,RMK 76.5/56.0,,0.00,WUHU21623XXSP,2013-08-10 07:26:00,
2013-08-10 03:31:00,64.1,59.2,30.07,NNE,22,0.0,0.0,84,0.00,RMK 76.5/56.0,,0.00,WUHU21623XXSP,2013-08-10 07:31:00,
2013-08-10 03:36:00,63.7,58.8,30.07,NNE,22,0.0,0.0,84,0.00,RMK 76.5/56.0,,0.00,WUHU21623XXSP,2013-08-10 07:36:00,
2013-08-10 03:41:00,63.7,58.8,30.07,NNE,22,0.0,0.0,84,0.00,RMK 76.5/56.0,,0.00,WUHU21623XXSP,2013-08-10 07:41:00,
2013-08-10 03:46:00,63.7,59.1,30.07,NNE,22,0.0,0.0,85,0.00,RMK 76.5/56.0,,0.00,WUHU21623XXSP,2013-08-10 07:46:00,
2013-08-10 03:51:00,63.5,58.6,30.07,NNE,22,0.0,0.0,84,0.00,RMK 76.3/56.0,,0.00,WUHU21623XXSP,2013-08-10 07:51:00,
2013-08-10 03:56:00,63.4,58.8,30.07,NNE,22,0.0,0.0,85,0.00,RMK 76.5/56.0,,0.00,WUHU21623XXSP,2013-08-10 07:56:00,
2013-08-10 04:01:00,63.4,58.8,30.07,NNE,22,0.0,0.0,85,0.00,RMK 76.3/56.0,,0.00,WUHU21623XXSP,2013-08-10 08:01:00,
2013-08-10 04:06:00,63.0,58.4,30.07,NNE,22,0.0,0.0,85,0.00,RMK 76.3/56.0,,0.00,WUHU21623XXSP,2013-08-10 08:06:00,
2013-08-10 04:11:00,62.8,58.6,30.08,NNE,22,0.0,0.0,86,0.00,RMK 76.3/56.0,,0.00,WUHU21623XXSP,2013-08-10 08:11:00,
2013-08-10 04:16:00,62.8,58.6,30.07,NNE,22,0.0,0.0,86,0.00,RMK 76.3/56.0,,0.00,WUHU21623XXSP,2013-08-10 08:16:00,
2013-08-10 04:21:00,62.8,58.6,30.08,NNE,22,0.0,0.0,86,0.00,RMK 76.3/56.0,,0.00,WUHU21623XXSP,2013-08-10 08:21:00,
2013-08-10 04:26:00,62.8,58.6,30.08,NNE,22,0.0,0.0,86,0.00,RMK 76.3/56.0,,0.00,WUHU21623XXSP,2013-08-10 08:26:00,
2013-08-10 04:31:00,62.8,58.6,30.08,NNE,22,0.0,0.0,86,0.00,RMK 76.3/56.0,,0.00,WUHU21623XXSP,2013-08-10 08:31:00,
2013-08-10 04:36:00,62.6,58.4,30.07,NNE,22,0.0,0.0,86,0.00,RMK 76.3/56.0,,0.00,WUHU21623XXSP,2013-08-10 08:36:00,
2013-08-10 04:41:00,62.6,58.4,30.07,NNE,22,0.0,0.0,86,0.00,RMK 76.3/56.0,,0.00,WUHU21623XXSP,2013-08-10 08:41:00,
2013-08-10 04:46:00,62.5,58.6,30.07,NNE,22,0.0,0.0,87,0.00,RMK 76.3/56.0,,0.00,WUHU21623XXSP,2013-08-10 08:46:00,
2013-08-10 04:51:00,62.3,58.4,30.07,NNE,22,0.0,0.0,87,0.00,RMK 76.3/56.0,,0.00,WUHU21623XXSP,2013-08-10 08:51:00,
2013-08-10 04:56:00,62.1,58.2,30.07,NNE,22,0.0,0.0,87,0.00,RMK 76.3/56.0,,0.00,WUHU21623XXSP,2013-08-10 08:56:00,
2013-08-10 05:01:00,61.9,58.0,30.07,NNE,22,0.0,0.0,87,0.00,RMK 76.3/56.0,,0.00,WUHU21623XXSP,2013-08-10 09:01:00,
2013-08-10 05:06:00,61.9,58.0,30.07,NNE,22,0.0,0.0,87,0.00,RMK 76.3/56.0,,0.00,WUHU21623XXSP,2013-08-10 09:06:00,
2013-08-10 05:11:00,61.7,57.8,30.07,NNE,22,0.0,0.0,87,0.00,RMK 76.3/56.0,,0.00,WUHU21623XXSP,2013-08-10 09:11:00,
2013-08-10 05:16:00,61.6,57.7,30.07,NNE,22,0.0,0.0,87,0.00,RMK 76.3/56.0,,0.00,WUHU21623XXSP,2013-08-10 09:16:00,
2013-08-10 05:21:00,61.4,57.5,30.07,NNE,22,0.0,0.0,87,0.00,RMK 76.3/56.0,,0.00,WUHU21623XXSP,2013-08-10 09:21:00,
2013-08-10 05:26:00,61.2,57.6,30.07,NNE,22,0.0,0.0,88,0.00,RMK 76.3/56.0,,0.00,WUHU21623XXSP,2013-08-10 09:26:00,
2013-08-10 05:31:00,61.2,57.6,30.07,NNE,22,0.0,0.0,88,0.00,RMK 76.1/56.0,,0.00,WUHU21623XXSP,2013-08-10 09:31:00,
2013-08-10 05:36:00,61.0,57.4,30.07,NNE,22,0.0,0.0,88,0.00,RMK 76.1/56.0,,0.00,WUHU21623XXSP,2013-08-10 09:36:00,
2013-08-10 05:41:00,61.0,57.4,30.08,NNE,22,0.0,0.0,88,0.00,RMK 76.1/56.0,,0.00,WUHU21623XXSP,2013-08-10 09:41:00,
2013-08-10 05:46:00,61.0,57.4,30.08,NNE,22,0.0,0.0,88,0.00,RMK 76.1/56.0,,0.00,WUHU21623XXSP,2013-08-10 09:46:00,
2013-08-10 05:51:00,61.2,57.6,30.08,NNE,22,0.0,0.0,88,0.00,RMK 76.1/56.0,,0.00,WUHU21623XXSP,2013-08-10 09:51:00,
2013-08-10 05:56:00,61.2,57.6,30.08,NNE,22,0.0,0.0,88,0.00,RMK 76.1/56.0,,0.00,WUHU21623XXSP,2013-08-10 09:56:00,
2013-08-10 06:01:00,61.2,57.6,30.08,NNE,22,0.0,0.0,88,0.00,RMK 76.1/56.0,,0.00,WUHU21623XXSP,2013-08-10 10:01:00,
2013-08-10 06:06:00,61.4,58.1,30.08,NNE,22,0.0,0.0,89,0.00,RMK 76.1/56.0,,0.00,WUHU21623XXSP,2013-08-10 10:06:00,
2013-08-10 06:11:00,61.4,58.1,30.08,NNE,22,0.0,0.0,89,0.00,RMK 76.1/56.0,,0.00,WUHU21623XXSP,2013-08-10 10:11:00,
2013-08-10 06:16:00,61.4,58.1,30.08,NNE,22,0.0,0.0,89,0.00,RMK 75.9/56.0,,0.00,WUHU21623XXSP,2013-08-10 10:16:00,
2013-08-10 06:21:00,61.6,58.3,30.08,NNE,22,0.0,0.0,89,0.00,RMK 75.9/56.0,,0.00,WUHU21623XXSP,2013-08-10 10:21:00,
2013-08-10 06:26:00,61.6,58.3,30.08,NNE,22,0.0,0.0,89,0.00,RMK 75.9/56.0,,0.00,WUHU21623XXSP,2013-08-10 10:26:00,
2013-08-10 06:31:00,61.4,58.1,30.09,NNE,22,0.0,0.0,89,0.00,RMK 75.9/56.0,,0.00,WUHU21623XXSP,2013-08-10 10:31:00,
2013-08-10 06:36:00,61.4,58.1,30.09,NNE,22,0.0,0.0,89,0.00,RMK 75.9/56.0,,0.00,WUHU21623XXSP,2013-08-10 10:36:00,
2013-08-10 06:41:00,61.4,58.1,30.10,NNE,22,0.0,0.0,89,0.00,RMK 75.9/56.0,,0.00,WUHU21623XXSP,2013-08-10 10:41:00,
2013-08-10 06:46:00,61.4,58.1,30.10,NNE,22,0.0,0.0,89,0.00,RMK 75.9/56.0,,0.00,WUHU21623XXSP,2013-08-10 10:46:00,
2013-08-10 06:51:00,61.4,58.1,30.10,NNE,22,0.0,0.0,89,0.00,RMK 75.9/56.0,,0.00,WUHU21623XXSP,2013-08-10 10:51:00,
2013-08-10 06:56:00,61.4,58.1,30.10,NNE,22,0.0,0.0,89,0.00,RMK 75.9/56.0,,0.00,WUHU21623XXSP,2013-08-10 10:56:00,
2013-08-10 07:01:00,61.4,58.1,30.10,NNE,22,0.0,0.0,89,0.00,RMK 75.9/56.0,,0.00,WUHU21623XXSP,2013-08-10 11:01:00,
2013-08-10 07:06:00,61.4,58.1,30.10,NNE,22,0.0,0.0,89,0.00,RMK 75.9/56.0,,0.00,WUHU21623XXSP,2013-08-10 11:06:00,
2013-08-10 07:11:00,61.6,58.3,30.10,NNE,22,0.0,0.0,89,0.00,RMK 75.9/56.0,,0.00,WUHU21623XXSP,2013-08-10 11:11:00,
2013-08-10 07:16:00,61.6,58.3,30.10,NNE,22,0.0,0.0,89,0.00,RMK 75.9/56.0,,0.00,WUHU21623XXSP,2013-08-10 11:16:00,
2013-08-10 07:21:00,61.6,58.3,30.10,NNE,22,0.0,0.0,89,0.00,RMK 75.9/56.0,,0.00,WUHU21623XXSP,2013-08-10 11:21:00,
2013-08-10 07:26:00,61.7,58.4,30.11,NNE,22,0.0,0.0,89,0.00,RMK 75.9/56.0,,0.00,WUHU21623XXSP,2013-08-10 11:26:00,
2013-08-10 07:31:00,61.9,58.6,30.10,NNE,22,0.0,0.0,89,0.00,RMK 75.9/56.0,,0.00,WUHU21623XXSP,2013-08-10 11:31:00,
2013-08-10 07:36:00,61.9,58.9,30.10,NNE,22,0.0,0.0,90,0.00,RMK 75.9/56.0,,0.00,WUHU21623XXSP,2013-08-10 11:36:00,
2013-08-10 07:41:00,62.1,59.1,30.10,NNE,22,0.0,0.0,90,0.00,RMK 75.9/56.0,,0.00,WUHU21623XXSP,2013-08-10 11:41:00,
2013-08-10 07:46:00,62.3,59.3,30.10,NNE,22,0.0,0.0,90,0.00,RMK 75.9/56.0,,0.00,WUHU21623XXSP,2013-08-10 11:46:00,
2013-08-10 07:51:00,62.5,59.2,30.11,NNE,22,0.0,0.0,89,0.00,RMK 75.9/56.0,,0.00,WUHU21623XXSP,2013-08-10 11:51:00,
2013-08-10 07:57:00,62.6,59.3,30.11,NNE,22,0.0,0.0,89,0.00,RMK 75.9/56.0,,0.00,WUHU21623XXSP,2013-08-10 11:57:00,
2013-08-10 08:01:00,62.6,59.3,30.11,NNE,22,0.0,0.0,89,0.00,RMK 75.9/56.0,,0.00,WUHU21623XXSP,2013-08-10 12:01:00,
2013-08-10 08:06:00,62.6,59.3,30.12,NNE,22,0.0,0.0,89,0.00,RMK 75.9/56.0,,0.00,WUHU21623XXSP,2013-08-10 12:06:00,
2013-08-10 08:11:00,63.0,59.4,30.11,NNE,22,0.0,0.0,88,0.00,RMK 75.9/56.0,,0.00,WUHU21623XXSP,2013-08-10 12:11:00,
2013-08-10 08:16:00,63.2,59.6,30.12,ENE,67,0.0,0.0,88,0.00,RMK 75.7/56.0,,0.00,WUHU21623XXSP,2013-08-10 12:16:00,
2013-08-10 08:21:00,63.5,59.6,30.11,NE,45,0.0,0.0,87,0.00,RMK 75.7/56.0,,0.00,WUHU21623XXSP,2013-08-10 12:21:00,
2013-08-10 08:26:00,63.7,59.8,30.12,East,90,0.0,0.0,87,0.00,RMK 75.7/56.0,,0.00,WUHU21623XXSP,2013-08-10 12:26:00,
2013-08-10 08:31:00,63.7,59.4,30.12,East,90,0.0,0.0,86,0.00,RMK 75.7/57.0,,0.00,WUHU21623XXSP,2013-08-10 12:31:00,
2013-08-10 08:36:00,64.1,60.1,30.12,NE,45,0.0,0.0,87,0.00,RMK 75.7/57.0,,0.00,WUHU21623XXSP,2013-08-10 12:36:00,
2013-08-10 08:41:00,64.3,60.0,30.11,SE,135,0.0,0.0,86,0.00,RMK 75.6/57.0,,0.00,WUHU21623XXSP,2013-08-10 12:41:00,
2013-08-10 08:47:00,64.6,60.3,30.12,SE,135,0.0,0.0,86,0.00,RMK 75.6/57.0,,0.00,WUHU21623XXSP,2013-08-10 12:47:00,
2013-08-10 08:52:00,64.8,59.9,30.11,NNE,22,0.0,0.0,84,0.00,RMK 75.4/57.0,,0.00,WUHU21623XXSP,2013-08-10 12:52:00,
2013-08-10 08:57:00,65.3,60.4,30.11,ESE,112,0.0,0.0,84,0.00,RMK 75.4/58.0,,0.00,WUHU21623XXSP,2013-08-10 12:57:00,
2013-08-10 09:02:00,66.2,61.3,30.12,ENE,67,0.0,0.0,84,0.00,RMK 75.4/58.0,,0.00,WUHU21623XXSP,2013-08-10 13:02:00,
2013-08-10 09:07:00,67.1,61.8,30.12,ENE,67,0.0,0.0,83,0.00,RMK 75.4/58.0,,0.00,WUHU21623XXSP,2013-08-10 13:07:00,
2013-08-10 09:12:00,68.0,62.0,30.12,East,90,0.0,0.0,81,0.00,RMK 75.4/59.0,,0.00,WUHU21623XXSP,2013-08-10 13:12:00,
2013-08-10 09:17:00,68.6,62.3,30.12,East,90,0.0,0.0,80,0.00,RMK 75.6/59.0,,0.00,WUHU21623XXSP,2013-08-10 13:17:00,
2013-08-10 09:22:00,68.9,61.9,30.12,SE,135,0.0,0.0,78,0.00,RMK 75.6/58.0,,0.00,WUHU21623XXSP,2013-08-10 13:22:00,
2013-08-10 09:27:00,69.3,61.9,30.12,NE,45,0.0,0.0,77,0.00,RMK 75.7/58.0,,0.00,WUHU21623XXSP,2013-08-10 13:27:00,
2013-08-10 09:32:00,69.3,61.9,30.11,SE,135,0.0,0.0,77,0.00,RMK 75.7/58.0,,0.00,WUHU21623XXSP,2013-08-10 13:32:00,
2013-08-10 09:37:00,68.9,61.5,30.12,SE,135,0.0,0.0,77,0.00,RMK 75.7/58.0,,0.00,WUHU21623XXSP,2013-08-10 13:37:00,
2013-08-10 09:42:00,68.9,61.5,30.12,SE,135,0.0,0.0,77,0.00,RMK 75.7/58.0,,0.00,WUHU21623XXSP,2013-08-10 13:42:00,
2013-08-10 09:47:00,68.4,61.4,30.12,SE,135,0.0,0.0,78,0.00,RMK 75.7/58.0,,0.00,WUHU21623XXSP,2013-08-10 13:47:00,
2013-08-10 09:52:00,68.2,61.2,30.12,ESE,112,0.0,0.0,78,0.00,RMK 75.7/58.0,,0.00,WUHU21623XXSP,2013-08-10 13:52:00,
2013-08-10 09:57:00,68.2,61.5,30.12,SE,135,0.0,0.0,79,0.00,RMK 75.7/58.0,,0.00,WUHU21623XXSP,2013-08-10 13:57:00,
2013-08-10 10:02:00,68.2,61.2,30.12,SE,135,0.0,0.0,78,0.00,RMK 75.7/58.0,,0.00,WUHU21623XXSP,2013-08-10 14:02:00,
2013-08-10 10:07:00,68.6,61.6,30.12,SE,135,0.0,0.0,78,0.00,RMK 75.7/58.0,,0.00,WUHU21623XXSP,2013-08-10 14:07:00,
2013-08-10 10:12:00,69.5,62.4,30.12,NE,45,0.0,0.0,78,0.00,RMK 75.7/58.0,,0.00,WUHU21623XXSP,2013-08-10 14:12:00,
2013-08-10 10:17:00,70.2,62.0,30.12,SE,135,0.0,0.0,75,0.00,RMK 75.9/58.0,,0.00,WUHU21623XXSP,2013-08-10 14:17:00,
2013-08-10 10:22:00,69.8,61.7,30.12,SSE,157,0.0,0.0,75,0.00,RMK 75.9/58.0,,0.00,WUHU21623XXSP,2013-08-10 14:22:00,
2013-08-10 10:27:00,69.8,62.0,30.12,NE,45,0.0,0.0,76,0.00,RMK 75.9/58.0,,0.00,WUHU21623XXSP,2013-08-10 14:27:00,
2013-08-10 10:32:00,69.8,61.7,30.12,NE,45,0.0,0.0,75,0.00,RMK 75.9/58.0,,0.00,WUHU21623XXSP,2013-08-10 14:32:00,
2013-08-10 10:37:00,70.0,62.2,30.12,NE,45,0.0,0.0,76,0.00,RMK 75.9/58.0,,0.00,WUHU21623XXSP,2013-08-10 14:37:00,
2013-08-10 10:42:00,70.2,62.0,30.13,SE,135,0.0,0.0,75,0.00,RMK 75.9/58.0,,0.00,WUHU21623XXSP,2013-08-10 14:42:00,
2013-08-10 10:47:00,70.9,62.7,30.13,NE,45,0.0,0.0,75,0.00,RMK 75.9/58.0,,0.00,WUHU21623XXSP,2013-08-10 14:47:00,
2013-08-10 10:52:00,71.5,62.6,30.13,ENE,67,0.0,0.0,73,0.00,RMK 75.9/58.0,,0.00,WUHU21623XXSP,2013-08-10 14:52:00,
2013-08-10 10:57:00,71.6,61.9,30.13,SE,135,0.0,0.0,71,0.00,RMK 75.9/57.0,,0.00,WUHU21623XXSP,2013-08-10 14:57:00,
2013-08-10 11:02:00,71.3,61.2,30.13,North,0,0.0,0.0,70,0.00,RMK 76.1/57.0,,0.00,WUHU21623XXSP,2013-08-10 15:02:00,
2013-08-10 11:07:00,71.5,61.0,30.13,ENE,67,0.0,0.0,69,0.00,RMK 76.1/56.0,,0.00,WUHU21623XXSP,2013-08-10 15:07:00,
2013-08-10 11:12:00,71.6,61.1,30.13,North,0,0.0,0.0,69,0.00,RMK 76.1/56.0,,0.00,WUHU21623XXSP,2013-08-10 15:12:00,
2013-08-10 11:17:00,71.5,61.8,30.13,NNW,337,0.0,0.0,71,0.00,RMK 76.1/56.0,,0.00,WUHU21623XXSP,2013-08-10 15:17:00,
2013-08-10 11:22:00,71.8,62.1,30.14,NNE,22,0.0,0.0,71,0.00,RMK 76.1/56.0,,0.00,WUHU21623XXSP,2013-08-10 15:22:00,
2013-08-10 11:27:00,72.2,62.1,30.13,NE,45,0.0,0.0,70,0.00,RMK 75.9/56.0,,0.00,WUHU21623XXSP,2013-08-10 15:27:00,
2013-08-10 11:32:00,73.1,62.5,30.14,NE,45,0.0,0.0,69,0.00,RMK 76.1/56.0,,0.00,WUHU21623XXSP,2013-08-10 15:32:00,
2013-08-10 11:37:00,73.6,62.2,30.14,South,180,0.0,0.0,67,0.00,RMK 76.1/56.0,,0.00,WUHU21623XXSP,2013-08-10 15:37:00,
2013-08-10 11:42:00,74.0,62.1,30.14,SW,225,0.0,0.0,66,0.00,RMK 76.1/56.0,,0.00,WUHU21623XXSP,2013-08-10 15:42:00,
2013-08-10 11:47:00,74.5,61.7,30.14,SW,225,0.0,0.0,64,0.00,RMK 76.3/56.0,,0.00,WUHU21623XXSP,2013-08-10 15:47:00,
2013-08-10 11:52:00,74.3,60.6,30.14,WSW,247,0.0,0.0,62,0.00,RMK 76.3/55.0,,0.00,WUHU21623XXSP,2013-08-10 15:52:00,
2013-08-10 11:57:00,74.3,61.1,30.14,WSW,247,0.0,0.0,63,0.00,RMK 76.5/55.0,,0.00,WUHU21623XXSP,2013-08-10 15:57:00,
2013-08-10 12:02:00,74.5,61.3,30.14,SSE,157,0.0,0.0,63,0.00,RMK 76.5/55.0,,0.00,WUHU21623XXSP,2013-08-10 16:02:00,
2013-08-10 12:07:00,74.3,60.6,30.14,NE,45,0.0,0.0,62,0.00,RMK 76.5/55.0,,0.00,WUHU21623XXSP,2013-08-10 16:07:00,
2013-08-10 12:12:00,73.6,60.0,30.14,NNE,22,0.0,0.0,62,0.00,RMK 76.5/54.0,,0.00,WUHU21623XXSP,2013-08-10 16:12:00,
2013-08-10 12:17:00,74.0,60.8,30.14,North,0,0.0,0.0,63,0.00,RMK 76.6/53.0,,0.00,WUHU21623XXSP,2013-08-10 16:17:00,
2013-08-10 12:22:00,74.0,60.8,30.14,North,0,0.0,0.0,63,0.00,RMK 76.6/53.0,,0.00,WUHU21623XXSP,2013-08-10 16:22:00,
2013-08-10 12:27:00,74.0,60.4,30.15,North,0,0.0,0.0,62,0.00,RMK 76.6/52.0,,0.00,WUHU21623XXSP,2013-08-10 16:27:00,
2013-08-10 12:32:00,74.3,60.6,30.14,NNE,22,0.0,0.0,62,0.00,RMK 76.5/52.0,,0.00,WUHU21623XXSP,2013-08-10 16:32:00,
2013-08-10 12:37:00,74.5,61.3,30.14,North,0,0.0,0.0,63,0.00,RMK 76.5/53.0,,0.00,WUHU21623XXSP,2013-08-10 16:37:00,
2013-08-10 12:42:00,74.5,60.8,30.15,North,0,0.0,0.0,62,0.00,RMK 76.5/53.0,,0.00,WUHU21623XXSP,2013-08-10 16:42:00,
2013-08-10 12:47:00,74.7,61.5,30.14,NNE,22,0.0,0.0,63,0.00,RMK 76.5/54.0,,0.00,WUHU21623XXSP,2013-08-10 16:47:00,
2013-08-10 12:52:00,74.9,61.7,30.14,NE,45,0.0,0.0,63,0.00,RMK 76.5/54.0,,0.00,WUHU21623XXSP,2013-08-10 16:52:00,
2013-08-10 12:57:00,75.2,62.0,30.14,North,0,0.0,0.0,63,0.00,RMK 76.6/55.0,,0.00,WUHU21623XXSP,2013-08-10 16:57:00,
2013-08-10 13:02:00,75.8,62.1,30.13,North,0,0.0,0.0,62,0.00,RMK 76.6/55.0,,0.00,WUHU21623XXSP,2013-08-10 17:02:00,
2013-08-10 13:07:00,76.1,62.4,30.14,SW,225,0.0,0.0,62,0.00,RMK 76.6/54.0,,0.00,WUHU21623XXSP,2013-08-10 17:07:00,
2013-08-10 13:12:00,76.3,62.1,30.13,North,0,0.0,0.0,61,0.00,RMK 76.6/54.0,,0.00,WUHU21623XXSP,2013-08-10 17:12:00,
2013-08-10 13:17:00,76.0,61.8,30.13,North,0,0.0,0.0,61,0.00,RMK 76.8/55.0,,0.00,WUHU21623XXSP,2013-08-10 17:17:00,
2013-08-10 13:22:00,75.4,61.2,30.13,North,0,0.0,0.0,61,0.00,RMK 76.8/54.0,,0.00,WUHU21623XXSP,2013-08-10 17:22:00,
2013-08-10 13:27:00,74.9,61.7,30.13,NNE,22,0.0,0.0,63,0.00,RMK 77.0/54.0,,0.00,WUHU21623XXSP,2013-08-10 17:27:00,
2013-08-10 13:32:00,74.3,60.6,30.13,North,0,0.0,0.0,62,0.00,RMK 77.0/54.0,,0.00,WUHU21623XXSP,2013-08-10 17:32:00,
2013-08-10 13:37:00,74.0,59.9,30.13,NE,45,0.0,0.0,61,0.00,RMK 77.0/54.0,,0.00,WUHU21623XXSP,2013-08-10 17:37:00,
2013-08-10 13:42:00,73.8,60.2,30.13,NE,45,0.0,0.0,62,0.00,RMK 77.0/53.0,,0.00,WUHU21623XXSP,2013-08-10 17:42:00,
2013-08-10 13:47:00,74.5,61.3,30.13,NNW,337,0.0,0.0,63,0.00,RMK 77.0/53.0,,0.00,WUHU21623XXSP,2013-08-10 17:47:00,
2013-08-10 13:52:00,74.9,60.8,30.13,NNE,22,0.0,0.0,61,0.00,RMK 77.2/54.0,,0.00,WUHU21623XXSP,2013-08-10 17:52:00,
2013-08-10 13:57:00,75.2,61.0,30.13,WNW,292,0.0,0.0,61,0.00,RMK 77.2/53.0,,0.00,WUHU21623XXSP,2013-08-10 17:57:00,
2013-08-10 14:02:00,75.2,60.6,30.12,West,270,0.0,0.0,60,0.00,RMK 77.4/53.0,,0.00,WUHU21623XXSP,2013-08-10 18:02:00,
2013-08-10 14:07:00,75.4,61.2,30.12,SW,225,0.0,0.0,61,0.00,RMK 77.4/53.0,,0.00,WUHU21623XXSP,2013-08-10 18:07:00,
2013-08-10 14:12:00,75.8,61.6,30.12,SW,225,0.0,0.0,61,0.00,RMK 77.4/53.0,,0.00,WUHU21623XXSP,2013-08-10 18:12:00,
2013-08-10 14:17:00,75.8,60.2,30.12,North,0,0.0,0.0,58,0.00,RMK 77.5/52.0,,0.00,WUHU21623XXSP,2013-08-10 18:17:00,
2013-08-10 14:22:00,75.2,60.1,30.12,North,0,0.0,0.0,59,0.00,RMK 77.5/52.0,,0.00,WUHU21623XXSP,2013-08-10 18:22:00,
2013-08-10 14:27:00,74.5,59.4,30.12,NNE,22,0.0,0.0,59,0.00,RMK 77.5/52.0,,0.00,WUHU21623XXSP,2013-08-10 18:27:00,
2013-08-10 14:32:00,74.3,59.2,30.12,North,0,0.0,0.0,59,0.00,RMK 77.5/52.0,,0.00,WUHU21623XXSP,2013-08-10 18:32:00,
2013-08-10 14:37:00,74.3,59.2,30.13,NNE,22,0.0,0.0,59,0.00,RMK 77.5/51.0,,0.00,WUHU21623XXSP,2013-08-10 18:37:00,
2013-08-10 14:42:00,74.3,58.8,30.12,NNW,337,0.0,0.0,58,0.00,RMK 77.5/51.0,,0.00,WUHU21623XXSP,2013-08-10 18:42:00,
2013-08-10 14:47:00,74.5,59.9,30.12,North,0,0.0,0.0,60,0.00,RMK 77.5/51.0,,0.00,WUHU21623XXSP,2013-08-10 18:47:00,
2013-08-10 14:52:00,74.9,59.8,30.12,NNE,22,0.0,0.0,59,0.00,RMK 77.5/51.0,,0.00,WUHU21623XXSP,2013-08-10 18:52:00,
2013-08-10 14:57:00,74.7,59.6,30.12,SSW,202,0.0,0.0,59,0.00,RMK 77.5/51.0,,0.00,WUHU21623XXSP,2013-08-10 18:57:00,
2013-08-10 15:02:00,75.1,59.5,30.11,North,0,0.0,0.0,58,0.00,RMK 77.7/51.0,,0.00,WUHU21623XXSP,2013-08-10 19:02:00,
2013-08-10 15:07:00,75.2,59.6,30.11,NW,315,0.0,0.0,58,0.00,RMK 77.7/51.0,,0.00,WUHU21623XXSP,2013-08-10 19:07:00,
2013-08-10 15:12:00,74.9,59.3,30.12,North,0,0.0,0.0,58,0.00,RMK 77.7/51.0,,0.00,WUHU21623XXSP,2013-08-10 19:12:00,
2013-08-10 15:17:00,74.5,59.9,30.12,North,0,0.0,0.0,60,0.00,RMK 77.7/51.0,,0.00,WUHU21623XXSP,2013-08-10 19:17:00,
2013-08-10 15:22:00,74.3,59.2,30.12,NW,315,0.0,0.0,59,0.00,RMK 77.7/51.0,,0.00,WUHU21623XXSP,2013-08-10 19:22:00,
2013-08-10 15:27:00,74.2,59.6,30.12,North,0,0.0,0.0,60,0.00,RMK 77.7/51.0,,0.00,WUHU21623XXSP,2013-08-10 19:27:00,
2013-08-10 15:32:00,73.6,58.6,30.12,North,0,0.0,0.0,59,0.00,RMK 77.7/51.0,,0.00,WUHU21623XXSP,2013-08-10 19:32:00,
2013-08-10 15:37:00,73.8,58.8,30.12,East,90,0.0,0.0,59,0.00,RMK 77.7/51.0,,0.00,WUHU21623XXSP,2013-08-10 19:37:00,
2013-08-10 15:42:00,74.0,59.0,30.11,NNE,22,0.0,0.0,59,0.00,RMK 77.7/51.0,,0.00,WUHU21623XXSP,2013-08-10 19:42:00,
2013-08-10 15:47:00,74.0,59.0,30.11,North,0,0.0,0.0,59,0.00,RMK 77.7/51.0,,0.00,WUHU21623XXSP,2013-08-10 19:47:00,
2013-08-10 15:52:00,74.2,58.2,30.11,ESE,112,0.0,0.0,57,0.00,RMK 77.7/51.0,,0.00,WUHU21623XXSP,2013-08-10 19:52:00,
2013-08-10 15:57:00,74.0,59.0,30.11,NNE,22,0.0,0.0,59,0.00,RMK 77.7/51.0,,0.00,WUHU21623XXSP,2013-08-10 19:57:00,
2013-08-10 16:02:00,74.0,59.0,30.10,NNE,22,0.0,0.0,59,0.00,RMK 77.7/51.0,,0.00,WUHU21623XXSP,2013-08-10 20:02:00,
2013-08-10 16:07:00,73.8,58.8,30.10,NNE,22,0.0,0.0,59,0.00,RMK 77.7/51.0,,0.00,WUHU21623XXSP,2013-08-10 20:07:00,
2013-08-10 16:12:00,73.6,59.1,30.10,NNW,337,0.0,0.0,60,0.00,RMK 77.7/51.0,,0.00,WUHU21623XXSP,2013-08-10 20:12:00,
2013-08-10 16:17:00,73.8,58.8,30.10,NW,315,0.0,0.0,59,0.00,RMK 77.7/51.0,,0.00,WUHU21623XXSP,2013-08-10 20:17:00,
2013-08-10 16:22:00,73.8,58.3,30.10,North,0,0.0,0.0,58,0.00,RMK 77.7/51.0,,0.00,WUHU21623XXSP,2013-08-10 20:22:00,
2013-08-10 16:27:00,74.0,59.0,30.10,North,0,0.0,0.0,59,0.00,RMK 77.7/51.0,,0.00,WUHU21623XXSP,2013-08-10 20:27:00,
2013-08-10 16:32:00,73.8,58.8,30.10,NNW,337,0.0,0.0,59,0.00,RMK 77.7/51.0,,0.00,WUHU21623XXSP,2013-08-10 20:32:00,
2013-08-10 16:37:00,73.6,58.6,30.10,NNE,22,0.0,0.0,59,0.00,RMK 77.7/51.0,,0.00,WUHU21623XXSP,2013-08-10 20:37:00,
2013-08-10 16:42:00,73.8,58.3,30.10,ENE,67,0.0,0.0,58,0.00,RMK 77.7/51.0,,0.00,WUHU21623XXSP,2013-08-10 20:42:00,
2013-08-10 16:47:00,73.8,58.3,30.10,NNE,22,0.0,0.0,58,0.00,RMK 77.5/51.0,,0.00,WUHU21623XXSP,2013-08-10 20:47:00,
2013-08-10 16:52:00,74.0,58.5,30.10,NNE,22,0.0,0.0,58,0.00,RMK 77.5/51.0,,0.00,WUHU21623XXSP,2013-08-10 20:52:00,
2013-08-10 16:57:00,74.0,58.5,30.10,NNW,337,0.0,0.0,58,0.00,RMK 77.5/51.0,,0.00,WUHU21623XXSP,2013-08-10 20:57:00,
2013-08-10 17:02:00,74.0,58.5,30.10,West,270,0.0,0.0,58,0.00,RMK 77.5/51.0,,0.00,WUHU21623XXSP,2013-08-10 21:02:00,
2013-08-10 17:07:00,74.0,58.5,30.10,North,0,0.0,0.0,58,0.00,RMK 77.5/51.0,,0.00,WUHU21623XXSP,2013-08-10 21:07:00,
2013-08-10 17:12:00,73.8,58.8,30.10,NNW,337,0.0,0.0,59,0.00,RMK 77.5/51.0,,0.00,WUHU21623XXSP,2013-08-10 21:12:00,
2013-08-10 17:17:00,73.4,57.9,30.10,NNE,22,0.0,0.0,58,0.00,RMK 77.5/51.0,,0.00,WUHU21623XXSP,2013-08-10 21:17:00,
2013-08-10 17:22:00,73.3,58.3,30.10,NNE,22,0.0,0.0,59,0.00,RMK 77.5/51.0,,0.00,WUHU21623XXSP,2013-08-10 21:22:00,
2013-08-10 17:27:00,73.1,58.6,30.10,North,0,0.0,0.0,60,0.00,RMK 77.5/51.0,,0.00,WUHU21623XXSP,2013-08-10 21:27:00,
2013-08-10 17:32:00,72.9,58.4,30.10,NNW,337,0.0,0.0,60,0.00,RMK 77.5/51.0,,0.00,WUHU21623XXSP,2013-08-10 21:32:00,
2013-08-10 17:37:00,72.7,57.7,30.10,North,0,0.0,0.0,59,0.00,RMK 77.5/51.0,,0.00,WUHU21623XXSP,2013-08-10 21:37:00,
2013-08-10 17:42:00,72.7,58.2,30.10,NNE,22,0.0,0.0,60,0.00,RMK 77.7/51.0,,0.00,WUHU21623XXSP,2013-08-10 21:42:00,
2013-08-10 17:47:00,72.9,58.4,30.10,NNE,22,0.0,0.0,60,0.00,RMK 77.7/51.0,,0.00,WUHU21623XXSP,2013-08-10 21:47:00,
2013-08-10 17:52:00,72.7,57.7,30.09,NNE,22,0.0,0.0,59,0.00,RMK 77.7/51.0,,0.00,WUHU21623XXSP,2013-08-10 21:52:00,
2013-08-10 17:56:00,72.7,57.7,30.09,NNE,22,0.0,0.0,59,0.00,RMK 77.7/51.0,,0.00,WUHU21623XXSP,2013-08-10 21:56:00,
2013-08-10 18:01:00,72.5,57.5,30.10,NE,45,0.0,0.0,59,0.00,RMK 77.7/51.0,,0.00,WUHU21623XXSP,2013-08-10 22:01:00,
2013-08-10 18:07:00,72.5,57.5,30.10,ENE,67,0.0,0.0,59,0.00,RMK 77.7/51.0,,0.00,WUHU21623XXSP,2013-08-10 22:07:00,
2013-08-10 18:12:00,72.2,57.3,30.10,NNE,22,0.0,0.0,59,0.00,RMK 77.7/51.0,,0.00,WUHU21623XXSP,2013-08-10 22:12:00,
2013-08-10 18:17:00,72.2,57.3,30.09,ENE,67,0.0,0.0,59,0.00,RMK 77.7/50.0,,0.00,WUHU21623XXSP,2013-08-10 22:17:00,
2013-08-10 18:22:00,72.0,57.5,30.10,North,0,0.0,0.0,60,0.00,RMK 77.7/51.0,,0.00,WUHU21623XXSP,2013-08-10 22:22:00,
2013-08-10 18:27:00,71.8,57.4,30.09,NNE,22,0.0,0.0,60,0.00,RMK 77.7/51.0,,0.00,WUHU21623XXSP,2013-08-10 22:27:00,
2013-08-10 18:32:00,71.6,57.2,30.09,NE,45,0.0,0.0,60,0.00,RMK 77.7/51.0,,0.00,WUHU21623XXSP,2013-08-10 22:32:00,
2013-08-10 18:37:00,71.6,57.2,30.09,NE,45,0.0,0.0,60,0.00,RMK 77.7/51.0,,0.00,WUHU21623XXSP,2013-08-10 22:37:00,
2013-08-10 18:42:00,71.6,57.6,30.09,NE,45,0.0,0.0,61,0.00,RMK 77.7/51.0,,0.00,WUHU21623XXSP,2013-08-10 22:42:00,
2013-08-10 18:47:00,71.6,57.2,30.09,NE,45,0.0,0.0,60,0.00,RMK 77.7/51.0,,0.00,WUHU21623XXSP,2013-08-10 22:47:00,
2013-08-10 18:52:00,71.8,57.4,30.09,NNW,337,0.0,0.0,60,0.00,RMK 77.7/51.0,,0.00,WUHU21623XXSP,2013-08-10 22:52:00,
2013-08-10 18:57:00,71.8,56.9,30.09,NNE,22,0.0,0.0,59,0.00,RMK 77.7/51.0,,0.00,WUHU21623XXSP,2013-08-10 22:57:00,
2013-08-10 19:02:00,71.8,56.9,30.09,NNE,22,0.0,0.0,59,0.00,RMK 77.7/51.0,,0.00,WUHU21623XXSP,2013-08-10 23:02:00,
2013-08-10 19:07:00,71.8,56.9,30.09,NNE,22,0.0,0.0,59,0.00,RMK 77.7/51.0,,0.00,WUHU21623XXSP,2013-08-10 23:07:00,
2013-08-10 19:12:00,71.8,56.9,30.08,SSE,157,0.0,0.0,59,0.00,RMK 77.7/51.0,,0.00,WUHU21623XXSP,2013-08-10 23:12:00,
2013-08-10 19:17:00,71.6,56.7,30.09,NNW,337,0.0,0.0,59,0.00,RMK 77.9/51.0,,0.00,WUHU21623XXSP,2013-08-10 23:17:00,
2013-08-10 19:22:00,71.8,57.4,30.09,NNW,337,0.0,0.0,60,0.00,RMK 77.9/51.0,,0.00,WUHU21623XXSP,2013-08-10 23:22:00,
2013-08-10 19:27:00,71.6,56.7,30.09,NE,45,0.0,0.0,59,0.00,RMK 77.9/51.0,,0.00,WUHU21623XXSP,2013-08-10 23:27:00,
2013-08-10 19:32:00,71.6,57.2,30.09,NNE,22,0.0,0.0,60,0.00,RMK 77.9/51.0,,0.00,WUHU21623XXSP,2013-08-10 23:32:00,
2013-08-10 19:37:00,71.6,57.2,30.09,NNE,22,0.0,0.0,60,0.00,RMK 77.9/51.0,,0.00,WUHU21623XXSP,2013-08-10 23:37:00,
2013-08-10 19:42:00,71.5,57.1,30.09,NNE,22,0.0,0.0,60,0.00,RMK 77.9/51.0,,0.00,WUHU21623XXSP,2013-08-10 23:42:00,
2013-08-10 19:47:00,71.3,57.3,30.08,NE,45,0.0,0.0,61,0.00,RMK 77.9/51.0,,0.00,WUHU21623XXSP,2013-08-10 23:47:00,
2013-08-10 19:52:00,71.3,57.3,30.08,NNE,22,0.0,0.0,61,0.00,RMK 77.9/51.0,,0.00,WUHU21623XXSP,2013-08-10 23:52:00,
2013-08-10 19:57:00,70.9,57.0,30.08,NNE,22,0.0,0.0,61,0.00,RMK 77.9/51.0,,0.00,WUHU21623XXSP,2013-08-10 23:57:00,
2013-08-10 20:02:00,70.9,57.0,30.08,NNE,22,0.0,0.0,61,0.00,RMK 78.1/51.0,,0.00,WUHU21623XXSP,2013-08-11 00:02:00,
2013-08-10 20:07:00,70.9,57.0,30.08,NNE,22,0.0,0.0,61,0.00,RMK 78.1/51.0,,0.00,WUHU21623XXSP,2013-08-11 00:07:00,
2013-08-10 20:12:00,70.7,56.8,30.08,NNE,22,0.0,0.0,61,0.00,RMK 78.1/51.0,,0.00,WUHU21623XXSP,2013-08-11 00:12:00,
2013-08-10 20:17:00,70.6,56.7,30.09,NNE,22,0.0,0.0,61,0.00,RMK 78.1/51.0,,0.00,WUHU21623XXSP,2013-08-11 00:17:00,
2013-08-10 20:22:00,70.4,56.9,30.08,NNE,22,0.0,0.0,62,0.00,RMK 78.1/51.0,,0.00,WUHU21623XXSP,2013-08-11 00:22:00,
2013-08-10 20:27:00,70.0,57.0,30.08,NNE,22,0.0,0.0,63,0.00,RMK 78.1/51.0,,0.00,WUHU21623XXSP,2013-08-11 00:27:00,
2013-08-10 20:32:00,69.8,56.8,30.08,NNE,22,0.0,0.0,63,0.00,RMK 78.1/51.0,,0.00,WUHU21623XXSP,2013-08-11 00:32:00,
2013-08-10 20:37:00,69.8,57.3,30.09,NNE,22,0.0,0.0,64,0.00,RMK 78.1/51.0,,0.00,WUHU21623XXSP,2013-08-11 00:37:00,
2013-08-10 20:42:00,69.3,57.2,30.08,NNE,22,0.0,0.0,65,0.00,RMK 78.1/51.0,,0.00,WUHU21623XXSP,2013-08-11 00:42:00,
2013-08-10 20:47:00,69.1,57.4,30.09,NNE,22,0.0,0.0,66,0.00,RMK 78.1/51.0,,0.00,WUHU21623XXSP,2013-08-11 00:47:00,
2013-08-10 20:52:00,68.8,57.2,30.09,NNE,22,0.0,0.0,66,0.00,RMK 78.1/51.0,,0.00,WUHU21623XXSP,2013-08-11 00:52:00,
2013-08-10 20:57:00,68.2,57.0,30.09,NNE,22,0.0,0.0,67,0.00,RMK 77.9/51.0,,0.00,WUHU21623XXSP,2013-08-11 00:57:00,
2013-08-10 21:02:00,67.9,57.1,30.09,NNE,22,0.0,0.0,68,0.00,RMK 78.1/51.0,,0.00,WUHU21623XXSP,2013-08-11 01:02:00,
2013-08-10 21:07:00,67.3,56.9,30.09,NNE,22,0.0,0.0,69,0.00,RMK 77.9/51.0,,0.00,WUHU21623XXSP,2013-08-11 01:07:00,
2013-08-10 21:12:00,67.0,57.1,30.10,NNE,22,0.0,0.0,70,0.00,RMK 77.9/51.0,,0.00,WUHU21623XXSP,2013-08-11 01:12:00,
2013-08-10 21:17:00,66.8,56.9,30.09,NNE,22,0.0,0.0,70,0.00,RMK 77.9/51.0,,0.00,WUHU21623XXSP,2013-08-11 01:17:00,
2013-08-10 21:22:00,66.4,56.9,30.10,NNE,22,0.0,0.0,71,0.00,RMK 77.9/51.0,,0.00,WUHU21623XXSP,2013-08-11 01:22:00,
2013-08-10 21:27:00,66.2,57.1,30.10,NNE,22,0.0,0.0,72,0.00,RMK 77.7/51.0,,0.00,WUHU21623XXSP,2013-08-11 01:27:00,
2013-08-10 21:32:00,65.9,56.8,30.10,NNE,22,0.0,0.0,72,0.00,RMK 77.7/51.0,,0.00,WUHU21623XXSP,2013-08-11 01:32:00,
2013-08-10 21:37:00,65.5,56.8,30.10,NNE,22,0.0,0.0,73,0.00,RMK 77.7/51.0,,0.00,WUHU21623XXSP,2013-08-11 01:37:00,
2013-08-10 21:42:00,65.3,56.6,30.10,NNE,22,0.0,0.0,73,0.00,RMK 77.7/51.0,,0.00,WUHU21623XXSP,2013-08-11 01:42:00,
2013-08-10 21:47:00,65.0,56.6,30.10,NNE,22,0.0,0.0,74,0.00,RMK 77.7/51.0,,0.00,WUHU21623XXSP,2013-08-11 01:47:00,
2013-08-10 21:52:00,65.0,56.6,30.11,NNE,22,0.0,0.0,74,0.00,RMK 77.7/51.0,,0.00,WUHU21623XXSP,2013-08-11 01:52:00,
2013-08-10 21:57:00,64.8,56.4,30.11,NNE,22,0.0,0.0,74,0.00,RMK 77.5/51.0,,0.00,WUHU21623XXSP,2013-08-11 01:57:00,
2013-08-10 22:02:00,64.6,56.6,30.11,NNE,22,0.0,0.0,75,0.00,RMK 77.5/51.0,,0.00,WUHU21623XXSP,2013-08-11 02:02:00,
2013-08-10 22:07:00,64.4,56.4,30.11,North,0,0.0,0.0,75,0.00,RMK 77.5/51.0,,0.00,WUHU21623XXSP,2013-08-11 02:07:00,
2013-08-10 22:12:00,64.3,56.7,30.12,North,0,0.0,0.0,76,0.00,RMK 77.5/51.0,,0.00,WUHU21623XXSP,2013-08-11 02:12:00,
2013-08-10 22:17:00,64.3,56.7,30.12,NNE,22,0.0,0.0,76,0.00,RMK 77.4/51.0,,0.00,WUHU21623XXSP,2013-08-11 02:17:00,
2013-08-10 22:22:00,64.1,56.5,30.12,ESE,112,0.0,0.0,76,0.00,RMK 77.4/52.0,,0.00,WUHU21623XXSP,2013-08-11 02:22:00,
2013-08-10 22:27:00,63.7,56.4,30.12,East,90,0.0,0.0,77,0.00,RMK 77.4/52.0,,0.00,WUHU21623XXSP,2013-08-11 02:27:00,
2013-08-10 22:32:00,63.7,56.4,30.12,SE,135,0.0,0.0,77,0.00,RMK 77.4/52.0,,0.00,WUHU21623XXSP,2013-08-11 02:32:00,
2013-08-10 22:37:00,63.7,56.4,30.12,SE,135,0.0,0.0,77,0.00,RMK 77.4/52.0,,0.00,WUHU21623XXSP,2013-08-11 02:37:00,
2013-08-10 22:42:00,63.9,56.6,30.12,SE,135,0.0,0.0,77,0.00,RMK 77.4/52.0,,0.00,WUHU21623XXSP,2013-08-11 02:42:00,
2013-08-10 22:47:00,64.1,56.8,30.12,SE,135,0.0,0.0,77,0.00,RMK 77.4/52.0,,0.00,WUHU21623XXSP,2013-08-11 02:47:00,
2013-08-10 22:52:00,64.1,56.8,30.13,SE,135,0.0,0.0,77,0.00,RMK 77.2/52.0,,0.00,WUHU21623XXSP,2013-08-11 02:52:00,
2013-08-10 22:57:00,64.1,56.8,30.12,SE,135,0.0,0.0,77,0.00,RMK 77.2/52.0,,0.00,WUHU21623XXSP,2013-08-11 02:57:00,
2013-08-10 23:02:00,64.1,56.8,30.13,SE,135,0.0,0.0,77,0.00,RMK 77.2/52.0,,0.00,WUHU21623XXSP,2013-08-11 03:02:00,
2013-08-10 23:07:00,64.1,57.2,30.13,SE,135,0.0,0.0,78,0.00,RMK 77.2/52.0,,0.00,WUHU21623XXSP,2013-08-11 03:07:00,
2013-08-10 23:12:00,64.1,57.2,30.13,SE,135,0.0,0.0,78,0.00,RMK 77.2/52.0,,0.00,WUHU21623XXSP,2013-08-11 03:12:00,
2013-08-10 23:17:00,64.1,57.2,30.13,SE,135,0.0,0.0,78,0.00,RMK 77.2/52.0,,0.00,WUHU21623XXSP,2013-08-11 03:17:00,
2013-08-10 23:22:00,64.1,57.2,30.13,SE,135,0.0,0.0,78,0.00,RMK 77.0/52.0,,0.00,WUHU21623XXSP,2013-08-11 03:22:00,
2013-08-10 23:27:00,64.3,57.4,30.13,SE,135,0.0,0.0,78,0.00,RMK 77.0/52.0,,0.00,WUHU21623XXSP,2013-08-11 03:27:00,
2013-08-10 23:32:00,64.4,57.1,30.13,SE,135,0.0,0.0,77,0.00,RMK 77.0/52.0,,0.00,WUHU21623XXSP,2013-08-11 03:32:00,
2013-08-10 23:37:00,64.4,57.5,30.13,SE,135,0.0,0.0,78,0.00,RMK 77.0/52.0,,0.00,WUHU21623XXSP,2013-08-11 03:37:00,
2013-08-10 23:42:00,64.4,57.1,30.13,SE,135,0.0,0.0,77,0.00,RMK 77.0/52.0,,0.00,WUHU21623XXSP,2013-08-11 03:42:00,
2013-08-10 23:47:00,64.4,57.1,30.13,SE,135,0.0,0.0,77,0.00,RMK 77.0/52.0,,0.00,WUHU21623XXSP,2013-08-11 03:47:00,
2013-08-10 23:53:00,64.3,57.0,30.13,ESE,112,0.0,0.0,77,0.00,RMK 77.0/52.0,,0.00,WUHU21623XXSP,2013-08-11 03:53:00,
2013-08-10 23:58:00,64.4,57.1,30.13,SE,135,0.0,0.0,77,0.00,RMK 77.0/52.0,,0.00,WUHU21623XXSP,2013-08-11 03:58:00,